Tracking 30995 objects as of 7-Jul-2025
HD Live streaming from Space Station
objects crossing your sky now

FENGYUN 1C DEB

Track FENGYUN 1C DEB now!
10-day predictions


NORAD ID: 29801
Int'l Code: 1999-025CT
Perigee: 705.1 km
Apogee: 854.8 km
Inclination: 98.8 °
Period: 100.3 minutes
Semi major axis: 7150 km
RCS: 0.105 m2 (medium)
Launch date: May 10, 1999
Source: People's Republic of China (PRC)
Launch site: Taiyaun Space Center, China (TSC)

Note: This is SATELLITE DEBRIS
Your satellite tracking list
Your tracking list is empty




NASA's NSSDC Master Catalog

Two Line Element Set (TLE):
1 29801U 99025CT  25187.63200023  .00000321  00000-0  12024-3 0  9992
2 29801  98.8074  85.4157 0104705  17.0658  44.5595 14.35683142966585
Source of the keplerian elements: AFSPC